Location: Trout Lake
(45.9980°N, 121.5270°W)
Time: 09:39:39
(UTC-07:00)

Daily predictions for brighter satellites

Satellite Brightness Start Highest point End
(mag) Time Altitude Azimuth Time Altitude Azimuth Time Altitude Azimuth
TELKOM 3 2.9 21:20:19 10° WNW 21:22:29 87° NNE 21:25:12 10° ESE
H-2A R/B 3.4 21:19:39 10° ESE 21:23:32 23° ENE 21:27:29 10° N
SAR-Lupe-4 4.0 21:22:18 10° S 21:25:51 63° WSW 21:29:26 10° NNW
Cosmos 1680 Rocket 4.2 21:22:03 10° SSW 21:27:13 61° WNW 21:32:24 10° NNE
Lacrosse 5 rocket 3.8 21:23:51 10° NW 21:27:26 22° N 21:31:04 10° ENE
Cosmos 2056 Rocket 3.5 21:23:58 10° NNW 21:29:10 83° ENE 21:34:17 10° SSE
Cosmos 2154 Rocket 4.1 21:22:53 10° N 21:29:16 74° E 21:35:35 10° SSE
Meteor 1-4 Rocket 4.4 21:27:21 10° NNE 21:29:48 17° ENE 21:32:13 10° ESE
Cosmos 1892 Rocket 4.2 21:27:47 10° SSE 21:31:51 37° E 21:35:55 10° NNE
Envisat 3.8 21:27:32 10° S 21:32:29 52° W 21:37:27 10° NNW
Meteor 1-23 Rocket 4.2 21:27:54 10° S 21:33:28 82° E 21:39:08 10° NNE
YAOGAN 6 2.6 21:30:04 10° SSE 21:33:33 84° W 21:37:05 10° NNW
Aureole 1 Rocket 3.5 21:31:24 10° SW 21:34:22 43° WNW 21:37:15 10° N
CZ-4B DEB 3.8 21:35:08 10° S 21:37:58 40° W 21:40:50 10° NNW
Terra 3.7 21:35:24 10° E 21:38:22 17° ENE 21:41:22 10° NNE
Cosmos 967 Rocket 4.5 21:32:58 10° SSW 21:39:06 64° ESE 21:45:20 10° NE
Okean 1-7 Rocket 3.8 21:34:51 10° SSW 21:39:19 80° W 21:43:52 10° N
Okean 2 3.3 21:35:21 10° S 21:39:25 72° E 21:43:30 10° NNE
Cosmos 1606 Rocket 3.5 21:35:40 10° N 21:39:59 74° E 21:44:18 10° SSE
Cosmos 2278 3.8 21:35:42 10° NNW 21:41:26 79° ENE 21:47:06 10° SSE
Cosmos 2082 Rocket 2.9 21:36:35 10° SSE 21:41:38 34° ESE 21:46:41 10° NE
Cosmos 405 4.2 21:41:09 10° NNW 21:44:32 41° W 21:47:51 10° SSW
Cosmos 1025 Rocket 3.2 21:42:01 10° SSW 21:46:16 75° W 21:50:33 10° N
Cosmos 1726 Rocket 3.5 21:44:31 10° N 21:48:52 76° E 21:53:10 10° SSE
DEBRIS 4.2 21:46:28 10° WSW 21:50:20 84° SSE 22:05:08 10° ENE
COSMOS 2487 2.8 21:47:03 10° S 21:50:28 45° ESE 21:53:55 10° NNE
SPOT 5 2.9 21:46:35 11° SSE 21:50:35 53° ENE 21:54:53 10° N
Cosmos 1656 3.7 21:49:37 10° NNW 21:55:05 72° ENE 21:59:55 13° SE
SL-24 DEB 4.5 21:50:58 11° SSE 21:55:21 54° E 21:59:54 10° N
Cosmos 1697 Rocket 3.0 21:51:08 10° NNW 21:56:39 55° ENE 22:01:23 14° SE
ISS -2.6 21:54:44 10° W 21:57:56 46° NNW 22:01:09 10° ENE
SL-08 RB Rocket 4.0 21:54:27 13° SSE 21:58:18 53° ENE 22:02:41 10° N
Cosmos 1452 Rocket 3.6 21:55:40 10° NNW 22:00:56 67° ENE 22:05:20 15° SSE
Cosmos 2369 3.9 21:56:20 10° NNW 22:02:04 75° WSW 22:07:20 12° SSE
USA 245 2.1 22:02:01 20° SSE 22:03:24 55° ENE 22:05:37 10° N
Cosmos 2341 Rocket 4.1 21:59:02 10° N 22:05:25 83° W 22:11:48 10° S
SL-16 R/B 4.1 22:02:12 10° N 22:06:14 19° NE 22:10:14 10° E
ERS-1 Rocket 3.5 22:02:14 10° S 22:07:10 58° W 22:12:09 10° NNW
Iridium 43 3.5 22:06:14 10° N 22:08:26 52° E 22:09:27 26° SSE
Cosmos 2058 Rocket 3.1 22:04:39 10° N 22:09:07 89° WSW 22:13:06 13° S
MetOp-A 4.3 22:04:15 10° S 22:09:35 74° WSW 22:14:59 10° NNW
NOSS 8 (H) 4.4 22:06:37 10° SSW 22:09:56 57° SE 22:13:31 10° NE
ATLAS CENTAUR R/B 3.6 22:09:12 10° N 22:11:19 14° NE 22:13:24 10° ENE
Cosmos 2218 Rocket 4.1 22:07:21 10° N 22:13:27 62° ENE 22:18:29 16° SSE
Cosmos 1271 Rocket 4.3 22:10:34 10° NNE 22:13:45 23° ENE 22:15:47 16° ESE
Cosmos 1833 Rocket 2.8 22:08:43 10° S 22:14:12 57° ESE 22:19:43 10° NNE
SPOT 1/Viking Rocket 3.6 22:10:47 15° SSE 22:15:00 69° ENE 22:20:08 10° N
Cosmos 1437 Rocket 4.2 22:12:20 10° NNW 22:15:49 33° W 22:19:21 10° SSW
MOS 1-B Rocket 4.3 22:10:25 10° S 22:16:16 70° WSW 22:23:01 10° NNW
YAOGAN 11 4.3 22:17:13 13° S 22:20:59 66° WSW 22:25:20 10° NNW
Cosmos 1515 4.5 22:20:38 10° SSW 22:24:20 51° WNW 22:28:05 10° N
Cosmos 1812 Rocket 4.1 22:23:51 10° N 22:28:11 45° ENE 22:30:40 22° SE
H-2A R/B 2.9 22:25:55 20° SE 22:28:37 41° ENE 22:32:52 10° N
Cosmos 1066 Rocket 4.2 22:30:36 10° S 22:36:07 86° E 22:41:51 10° NNE
Cosmos 2181 Rocket 4.3 22:30:11 10° SSW 22:36:30 68° W 22:42:46 10° N
Cosmos 1626 Rocket 3.5 22:35:57 20° S 22:38:50 68° E 22:43:08 10° NNE
Meteor 2-21 4.4 22:34:28 10° N 22:40:33 88° E 22:44:59 19° S
Cosmos 158 Rocket 4.3 22:38:28 19° S 22:41:59 49° ESE 22:47:10 10° NNE
USA 229 DEB 3.8 22:34:50 10° NW 22:42:01 81° NE 22:47:09 21° SE
USA 229 3.8 22:34:57 10° NW 22:42:07 81° NE 22:47:15 21° SE
Tiangong 2 1.6 22:40:19 10° W 22:43:20 40° S 22:43:45 37° SSE
Cosmos 2360 Rocket 4.4 22:40:17 10° N 22:43:51 17° NE 22:47:25 10° E
Cosmos 1953 3.7 22:41:55 10° NNE 22:45:24 27° ENE 22:46:52 21° ESE
Meteor 2-21 Rocket 4.4 22:39:21 10° N 22:45:27 79° E 22:49:30 22° SSE
Cosmos 1980 Rocket 2.2 22:40:16 10° NNW 22:45:57 78° ENE 22:49:22 25° SSE
Cosmos 2228 4.0 22:42:10 10° NNW 22:46:13 41° W 22:49:35 14° SSW
ARGOS 4.0 22:43:52 13° S 22:48:33 46° W 22:53:46 10° NNW
PSLV R/B 3.8 22:49:23 33° E 22:49:46 35° ENE 22:52:22 10° N
Cosmos 1766 3.1 22:47:51 10° N 22:51:47 81° E 22:53:28 33° SSE
Cosmos 1825 Rocket 4.5 22:51:37 26° ESE 22:52:50 31° E 22:56:39 10° NNE
CZ-4B R/B 4.3 22:48:38 10° NNE 22:53:17 34° E 22:55:10 26° SE
Cosmos 2322 Rocket 3.1 22:52:26 10° NNW 22:57:47 39° NE 23:01:16 20° ESE
Landsat 7 4.0 22:57:46 24° S 23:00:34 67° WSW 23:05:20 10° NNW
H-2A R/B 2.6 22:59:16 19° SSW 23:02:37 50° W 23:07:34 10° NNW
Meteor 1-4 Rocket 4.0 23:01:51 10° NNW 23:05:04 31° W 23:06:54 19° SW
Cosmos 1470 4.2 23:03:23 10° NNE 23:06:44 25° ENE 23:07:46 22° E
Lacrosse 5 rocket 2.5 23:03:12 10° NW 23:07:41 45° NNE 23:10:52 18° E
Meteor 1-21 4.2 23:06:06 23° S 23:09:50 82° E 23:15:38 10° NNE
Cosmos-2242 4.4 23:09:17 10° NNE 23:12:55 26° ENE 23:14:10 22° E
Cosmos 1602 Rocket 4.2 23:11:38 18° SSW 23:14:41 52° WNW 23:18:56 10° N
CZ-2C R/B 4.4 23:11:12 10° NE 23:14:50 17° E 23:16:02 16° ESE
Terra 2.0 23:13:16 30° S 23:15:35 68° WSW 23:20:21 10° NNW
Cosmos 1805 3.1 23:16:22 10° N 23:20:17 88° W 23:21:22 47° S
Cosmos 2082 Rocket 3.4 23:20:17 10° SW 23:25:37 41° NW 23:30:58 10° NNE
Cosmos 1269 Rocket 4.2 23:21:50 16° SSW 23:26:07 72° WNW 23:31:27 10° NNE
Cosmos 389 Rocket 2.3 23:22:41 10° N 23:26:09 71° ENE 23:26:33 62° SE
deb Chang Zheng 4 3.5 23:22:53 10° NNE 23:27:12 81° WNW 23:29:07 33° SSW
Cosmos 1758 3.2 23:24:40 10° N 23:28:42 89° E 23:29:40 51° S
Cosmos 1048 Rocket 4.4 23:28:34 14° SW 23:32:55 60° WNW 23:38:05 10° NNE
Meteor 2-8 Rocket 4.4 23:29:46 30° S 23:33:01 80° E 23:39:12 10° N
Cosmos 1331 Rocket 4.0 23:27:59 10° NNW 23:33:10 75° ENE 23:35:07 39° SE
ISS -1.8 23:31:59 10° WNW 23:34:55 29° N 23:37:52 10° ENE
Iridium 2 4.4 23:33:00 10° NNW 23:36:39 46° W 23:37:46 34° SW
Cosmos 1110 Rocket 3.9 23:31:55 10° NNW 23:37:12 89° WSW 23:39:08 40° SSE
Cosmos 1697 Rocket 4.3 23:35:47 10° NW 23:40:14 25° WSW 23:43:07 16° SW
Spot 4 3.9 23:39:52 40° S 23:41:34 72° WSW 23:46:24 10° NNW
Cosmos 1302 Rocket 4.4 23:37:18 10° NNW 23:42:29 54° ENE 23:44:33 34° ESE
Lacrosse 5 2.1 23:43:44 42° SE 23:44:09 43° SE 23:48:56 10° ENE
Cosmos 1271 Rocket 4.3 23:46:24 10° NNW 23:49:47 28° W 23:50:59 24° WSW
ATLAS CENTAUR R/B 0.8 23:47:08 10° NW 23:50:50 83° WSW 23:51:02 78° S
SL-16 R/B 2.1 23:45:26 10° NNW 23:51:09 89° WSW 23:53:16 41° SSE
DELTA 2 DEB (DPAF) 4.3 23:50:05 44° SSW 23:51:20 63° WSW 23:55:48 10° NNW
SeaSat 1 3.5 23:50:22 23° ESE 23:52:50 39° NE 23:57:24 10° NNW
